Location: Bishop�s Knoyle
(51.0728°N, 2.1714°W)
Time: 01:23:47
(UTC+00:00)

Nauka - Pass Details

Date: 03 October 2021
Orbit: 417 x 423 km, 51.6° (Epoch: 26 October)

Event Time Altitude Azimuth Distance (km) Brightness Sun altitude
Rises 18:16:44 0° 285° (WNW) 2,366 ? -6.3°
Reaches altitude 10° 18:18:52 10° 279° (W) 1,501 ? -6.7°
Maximum altitude 18:22:07 48° 205° (SSW) 554 ? -7.2°
Drops below altitude 10° 18:25:23 10° 129° (SE) 1,498 ? -7.7°
Enters shadow 18:26:03 - 127° (SE) 1,765 ? -7.8°
